sat.trackr.live / text

‹ back to catalog

STARLINK-6124

NORAD 56126 · 2023-046AL

PAYLOAD ACTIVE UNKNOWN

§ Identity

Operator
Country
US
Launch date
2023-03-29
Launch site
AFETR
Launch vehicle
Mass (kg)
RCS (m²)

Purposes: comms

External: N2YO · Heavens-Above · Gunter

§ Orbital elements

Epoch: 2026-09-19T23:23:49.383168Z

Period
94.27 min
Inclination
43.0029°
Eccentricity
0.0001538
Mean motion
15.27576352 rev/d
Perigee alt
482.0 km
Apogee alt
484.1 km
Semi-major
6,861.2 km
B*
2.8676e-5
RAAN
129.7619°
Arg perigee
262.7468°
Mean anomaly
97.3209°
Rev number
19,191

§ Raw data

STARLINK-61241 56126U 23046AL  26262.97487712  .00000527  00000+0  28676-4 0  99942 56126  43.0029 129.7619 0001538 262.7468  97.3209 15.27576352191911

JSON: /api/v1/satellites/56126 · /tle

For live sub-satellite position, see the globe view (requires WebGL).

§ Visibility from observer

Set your observer location to see the next 7 days of passes ≥ 10°. The values pass through the URL so the page stays shareable.

No JS? Fill the form by hand. The geolocation button needs JavaScript.